Lapse_Rate
4.1 4.6 4.7 5.0 5.3 5.5 5.7 5.4 5.4 5.2 5.2 5.9 6.5 6.9 6.8 6.8 6.6 7.3 7.8 8.6 8.0 7.8 8.0 7.9 8.3 8.4 8.2 8.1 8.2 8.4 8.0 8.1 7.7
3.6 4.4 4.6 4.9 5.2 5.3 5.7 5.7 5.5 5.4 5.5 5.8 6.1 6.7 6.8 7.1 6.4 7.5 8.2 8.3 8.0 9.0 8.6 8.6 7.8 7.8 7.8 8.2 8.1 8.4 7.6 8.2 7.9
3.2 4.2 4.3 4.1 4.7 4.9 4.8 5.5 5.7 5.5 5.5 5.7 6.1 6.9 7.2 6.9 6.9 7.7 8.2 7.6 8.8 8.3 8.3 8.2 8.0 8.5 8.4 8.4 8.0 7.9 7.8 8.2 7.9
3.3 3.5 3.9 4.1 3.6 4.2 4.2 4.5 5.2 5.6 5.4 5.9 6.3 7.0 7.0 6.8 6.8 6.9 7.3 8.4 8.9 8.6 8.3 7.8 8.3 7.9 8.3 8.4 8.0 7.6 8.0 8.1 7.9
2.8 3.3 4.0 4.1 3.6 3.4 3.2 3.3 3.9 4.7 5.4 5.9 6.4 6.7 6.6 6.5 6.5 6.7 7.5 8.0 8.5 8.3 8.5 8.0 7.8 7.8 8.2 8.0 8.3 8.1 8.1 8.1 7.9
1.6 2.4 3.1 3.5 3.2 3.4 2.9 2.7 2.2 3.0 4.1 4.8 5.5 6.1 6.3 6.1 6.4 7.0 8.5 8.5 8.4 9.0 8.7 8.0 7.9 7.8 8.0 7.8 8.5 7.8 8.1 7.4 7.0
0.6 1.2 2.3 2.6 2.8 2.4 2.4 2.5 2.2 1.4 1.8 2.9 4.5 5.4 6.3 5.9 6.0 6.6 7.6 8.3 8.8 8.7 8.8 8.2 8.1 7.8 8.2 8.2 6.8 6.6 5.8 5.2 5.3
-0.1 0.2 0.5 1.1 1.7 1.9 1.9 1.9 2.0 2.1 1.6 2.1 3.3 4.7 5.7 5.7 5.9 6.8 7.5 8.6 8.9 8.6 8.5 8.3 8.4 8.1 8.1 7.8 6.7 6.4 4.9 3.8 3.6
-1.5 -1.1 -0.4 0.0 0.8 1.3 1.8 1.9 1.9 1.6 1.6 2.2 2.9 3.8 4.3 5.2 5.7 6.8 7.1 8.2 8.3 8.5 8.3 8.4 8.3 8.4 8.5 8.6 7.3 7.0 5.5 5.5 4.2
-1.8 -1.6 -1.1 -0.7 0.3 0.8 1.1 1.9 1.9 1.7 1.6 2.5 2.4 2.9 3.5 3.8 5.8 6.2 7.0 7.3 8.0 8.9 9.1 8.6 8.7 8.4 8.6 8.1 8.2 7.7 5.9 5.0 5.1
-2.9 -2.6 -2.2 -1.7 -0.6 0.3 0.7 1.5 1.8 1.6 2.0 1.7 2.2 2.3 3.1 3.7 4.5 6.0 6.8 7.2 7.3 8.1 8.0 8.3 8.8 8.2 9.1 8.9 8.6 7.9 6.1 5.6 5.9
-3.1 -3.3 -3.3 -2.4 -1.1 -0.6 0.2 0.8 1.7 1.8 2.0 1.6 1.9 2.5 2.6 3.1 3.8 4.8 5.9 7.2 7.5 7.6 7.9 8.1 7.9 8.3 7.8 7.7 8.2 8.2 8.2 8.0 6.1
-3.2 -3.8 -3.8 -2.3 -1.8 -1.9 -1.5 -0.9 0.1 0.6 0.7 1.9 2.6 3.0 3.0 3.0 3.5 3.8 5.0 5.9 7.1 7.2 7.5 7.4 7.7 7.9 7.5 7.3 7.0 6.6 6.3 6.3 6.6
-3.3 -3.7 -3.4 -2.4 -2.7 -3.0 -2.5 -1.5 -0.7 0.1 1.0 3.8 4.3 3.9 3.4 3.0 3.0 3.1 3.6 4.4 5.5 6.0 6.3 6.7 7.0 7.1 8.2 8.5 8.2 7.6 6.4 6.1 6.1
-3.4 -3.5 -3.3 -2.7 -3.5 -3.5 -2.7 -1.9 -0.2 0.5 3.7 6.6 5.3 4.3 4.0 3.1 2.5 2.5 2.7 3.2 3.6 4.1 4.2 4.3 4.5 4.9 5.1 6.0 6.2 7.0 7.8 7.9 7.1
-3.9 -3.9 -3.6 -3.3 -4.2 -4.3 -2.7 -1.7 0.2 2.0 2.8 5.3 5.8 5.2 4.6 3.6 3.2 3.0 2.6 2.6 3.0 3.5 3.4 3.8 4.0 3.9 3.8 3.8 4.6 5.2 6.0 6.5 6.6
-3.8 -4.3 -4.4 -4.1 -4.5 -4.2 -3.7 -2.2 -0.4 1.1 1.7 3.4 3.4 5.9 5.5 4.4 3.5 3.1 3.2 2.2 2.3 3.2 3.2 3.4 3.3 2.6 2.3 2.5 3.3 4.4 5.7 6.4 6.9
-3.8 -3.9 -4.1 -4.1 -4.2 -4.7 -4.4 -3.5 -1.8 -0.6 0.5 1.1 1.6 3.5 4.4 4.5 5.4 3.8 3.1 3.3 2.8 3.1 2.5 1.7 1.2 1.3 1.3 1.3 1.9 3.0 3.8 5.0 6.3
-3.3 -3.5 -3.8 -4.2 -4.4 -5.1 -4.3 -3.6 -3.8 -2.2 -1.4 0.3 0.9 0.5 1.5 3.8 5.4 4.7 3.2 3.6 3.0 3.2 2.5 1.7 1.3 1.5 1.1 1.3 1.6 2.4 3.3 4.4 5.3
-3.0 -3.3 -3.6 -4.1 -4.3 -4.5 -4.6 -4.7 -4.1 -3.5 -2.6 -1.5 -0.7 0.8 0.2 0.6 1.9 3.0 2.2 2.6 2.2 3.3 2.9 2.4 1.5 1.0 0.9 1.1 1.8 2.7 3.5 4.4 5.3
Wind_Speed
21 19 17 17 18 14 13 13 13 13 12 12 15 20 19 22 20 15 14 16 16 21 20 20 20 19 19 19 20 21 17 20 19
21 21 19 16 16 16 10 11 12 11 9 10 13 17 16 20 19 17 16 16 20 18 17 18 20 20 20 20 20 20 19 19 19
18 20 20 18 14 14 13 11 9 8 7 7 11 13 15 18 16 12 13 20 19 17 18 18 20 19 19 19 20 19 20 20 19
18 17 19 20 19 15 14 11 8 6 6 5 9 10 15 18 13 13 14 19 18 16 18 19 18 20 18 18 19 19 20 19 19
17 17 17 18 20 19 16 14 10 8 3 3 6 8 12 17 17 17 15 17 18 17 17 17 20 20 18 19 18 18 18 19 20
19 17 17 17 16 19 19 16 13 9 8 6 8 8 9 18 16 16 16 17 17 15 16 18 18 18 19 17 17 15 17 17 16
17 18 18 18 19 17 17 18 16 12 8 8 8 11 7 18 16 15 19 18 14 14 13 17 18 17 18 15 15 15 14 13 16
20 19 18 18 18 16 18 18 14 13 9 9 8 11 8 8 14 17 17 17 13 11 13 15 15 16 16 13 13 13 13 13 12
16 16 17 16 16 16 16 15 15 11 12 10 7 11 9 8 7 17 16 18 15 14 13 14 14 15 14 13 12 11 12 11 11
14 15 17 17 19 16 13 14 12 12 11 13 11 8 10 13 4 15 18 15 16 14 11 11 12 12 13 12 10 10 10 10 10
13 13 13 15 18 17 15 11 10 9 10 10 11 11 8 14 10 5 15 15 14 13 13 11 12 12 11 12 13 10 9 8 7
13 11 11 14 18 17 16 14 13 9 10 6 9 11 9 11 10 11 10 12 15 13 14 10 12 8 8 8 7 7 9 6 4
15 12 11 16 16 14 11 7 4 4 4 3 6 9 10 10 10 14 9 11 11 12 12 11 10 9 6 6 5 4 2 4 5
14 13 14 16 14 12 6 4 3 3 4 5 5 7 8 11 11 13 12 14 12 12 12 11 11 10 9 8 8 7 1 1 2
14 14 15 15 9 7 5 4 4 3 3 6 6 6 9 13 12 12 14 15 15 15 15 15 17 22 21 21 20 16 11 6 3
15 13 14 14 6 5 6 3 5 6 5 3 7 8 8 9 9 13 14 16 14 16 16 15 14 16 22 23 22 19 18 17 15
11 12 10 12 6 6 6 5 2 3 6 2 1 2 3 6 7 8 10 13 13 13 17 18 18 19 19 22 25 24 21 18 15
12 12 12 11 9 4 4 4 4 3 5 7 2 2 2 0 2 7 6 8 8 12 18 20 22 20 19 18 22 25 25 24 23
10 10 11 11 10 5 4 8 4 3 3 2 5 5 3 2 2 2 4 5 8 12 13 15 20 19 15 19 23 24 23 23 23
8 9 9 10 10 9 9 5 5 4 3 3 2 4 4 4 3 0 3 3 4 10 12 14 16 18 17 20 21 23 22 22 21
Wind_Direction
33 39 36 40 49 62 90 93 87 76 57 47 48 59 94 90 83 78 90 83 83 76 80 72 76 81 76 72 72 74 70 71 70
32 32 35 37 45 49 75 100 90 80 66 54 54 59 101 96 89 81 85 86 84 73 80 80 77 79 76 69 71 72 67 71 68
34 32 33 38 43 48 46 65 91 93 73 51 60 58 89 101 99 89 84 92 80 76 80 80 80 78 77 71 76 66 70 69 63
36 33 31 36 39 42 43 47 60 95 79 47 56 38 62 113 104 98 93 92 84 86 84 82 81 78 73 71 70 63 66 67 65
29 28 32 33 39 37 39 37 47 67 87 35 53 34 87 115 100 99 101 92 92 89 86 89 89 87 77 67 67 60 61 57 58
29 28 27 29 28 33 35 34 33 43 44 4 18 27 106 115 108 105 99 93 94 97 91 89 91 92 81 80 73 67 61 60 59
27 31 30 27 23 22 20 28 30 33 27 14 19 21 129 127 124 114 108 104 93 93 95 101 95 89 88 80 79 77 77 64 62
28 25 23 23 14 8 9 13 16 22 27 18 10 30 55 129 131 126 121 108 93 104 108 102 95 94 88 82 83 77 74 77 70
26 26 22 16 10 3 2 6 11 20 33 38 26 36 43 58 117 126 122 113 115 107 96 98 99 94 88 84 79 75 72 66 63
31 28 20 15 12 10 358 5 16 24 39 37 38 47 34 55 96 131 122 117 123 116 118 120 113 108 93 87 77 72 66 61 54
33 30 14 12 15 14 11 13 12 16 37 36 37 46 48 65 55 89 129 127 124 113 113 113 109 112 104 106 100 95 67 57 55
39 32 18 14 22 20 19 16 24 25 23 39 39 46 58 50 61 73 85 127 122 116 120 117 112 105 109 112 91 87 95 100 118
42 34 21 27 28 24 13 19 9 14 22 42 39 38 52 55 39 70 77 92 102 84 87 91 96 94 103 93 84 113 106 51 92
45 36 30 37 30 25 17 18 24 16 4 73 49 47 46 48 40 49 51 65 86 89 72 70 59 45 47 60 67 68 155 215 277
47 42 36 39 29 24 12 19 23 22 8 76 66 55 51 53 48 45 47 51 52 54 56 47 58 57 48 35 33 16 16 17 342
47 43 37 39 36 18 18 3 25 27 357 97 79 68 58 54 47 50 49 44 47 58 57 48 37 42 48 39 31 24 3 354 359
53 54 45 42 33 22 19 21 22 45 18 78 90 103 62 48 38 49 52 45 38 57 60 64 59 52 44 33 30 29 19 4 346
57 58 61 56 54 39 24 17 46 93 35 39 92 100 102 61 38 41 46 46 40 52 59 55 52 47 40 30 24 21 19 12 7
63 65 65 63 59 47 32 34 32 68 77 36 26 60 80 137 137 62 33 37 37 59 62 58 50 39 33 30 21 19 12 9 7
68 68 67 65 62 58 53 39 43 43 68 59 41 47 56 41 90 123 351 18 24 67 60 60 49 33 26 23 12 11 7 6 5